Regional Weather Roundup
Issued by NWS

Home | Current Version | Previous Version | Text Only | Print | Product List | Glossary Off
Versions: 1 2 3 4 5 6 7 8 9 10 11 12 13 14 15 16 17 18 19 20 21 22 23 24 25 26 27 28 29 30 31 32 33 34 35 36 37 38 39 40 41 42 43 44 45 46 47 48 49 50

775
ASUS43 KLSX 102010
RWRMO

WEATHER SUMMARY FOR MISSOURI
NATIONAL WEATHER SERVICE SPRINGFIELD MO
200 PM CST WED FEB 10 2016

NOTE: "FAIR" INDICATES FEW OR NO CLOUDS BELOW 12,000 FEET WITH NO
       SIGNIFICANT WEATHER AND/OR OBSTRUCTIONS TO VISIBILITY.
       CURRENT SKY AND/OR WEATHER CONDITIONS ARE NOT AVAILABLE FOR
       CHILLICOTHE AND FARMINGTON.

MOZ001>031-035>038-043-044-053-054-102100-
...NORTHERN AND WESTERN MISSOURI...

CITY           SKY/WX    TMP DP  RH WIND       PRES   REMARKS
KANSAS CTY INT SUNNY     45  20  36 S13       29.92F
KANSAS C DTWN  SUNNY     46  18  32 S14       29.94F
LEE`S SUMMIT   SUNNY     43  18  36 S15       29.95F
ST JOSEPH      SUNNY     44  19  36 S10       29.92F
CHILLICOTHE      N/A     33  21  61 SE8       30.00F WCI  26
KIRKSVILLE     CLOUDY    21  16  81 SE8       30.04F WCI  11

$$
MOZ066>068-077>081-088>096-101>105-102100-
...SOUTHWEST MISSOURI...

CITY           SKY/WX    TMP DP  RH WIND       PRES   REMARKS
SPRINGFIELD    SUNNY     45  16  31 SW16      29.99F
JOPLIN         SUNNY     47  19  33 SW14      30.02F

$$
MOZ032>034-039>042-045>050-055>058-069>072-102100-
...CENTRAL MISSOURI...

CITY           SKY/WX    TMP DP  RH WIND       PRES   REMARKS
COLUMBIA       CLOUDY    25  20  81 S10       30.05F WCI  15
JEFFERSON CITY CLOUDY    26  19  74 SE7       30.09F WCI  18
ROLLA          MOSUNNY   25  19  78 SE7       30.04F WCI  17
SEDALIA        SUNNY     40  14  34 S14       30.01F
WHITEMAN AFB   MOSUNNY   41  17  37 SW15      29.98F
WARRENSBURG    SUNNY     39  18  41 S9        29.99F
OSAGE BEACH    MOSUNNY   37  14  38 SE8       30.03F

$$
MOZ051-052-059>065-102100-
...EAST CENTRAL MISSOURI...

CITY           SKY/WX    TMP DP  RH WIND       PRES   REMARKS
ST LOUIS INTL  LGT SNOW  22  15  75 SW5       30.12F VSB 1   WCI  16
SPIRIT OF STL  LGT SNOW  21  16  79 SW5       30.12F WCI  15
ST CHARLES     LGT SNOW  20  15  81 SW5       30.12F VSB 1   WCI  13

$$
MOZ072>076-082>087-097>100-106>115-102100-
...SOUTH CENTRAL AND SOUTHEAST MISSOURI...

CITY           SKY/WX    TMP DP  RH WIND       PRES   REMARKS
CAPE GIRARDEAU LGT SNOW  24  16  71 S6        30.17F WCI  17
FARMINGTON     LGT SNOW  22  18  85 S5        30.11F FOG     WCI  16
POPLAR BLUFF   CLOUDY    29  13  51 VRB6      30.16F WCI  23
WEST PLAINS    SUNNY     38  12  34 S9G16     30.05F

$$




USA.gov is the U.S. government's official web portal to all federal, state and local government web resources and services.